TimeEDT,TemperatureF,Dew PointF,Humidity,Sea Level PressureIn,VisibilityMPH,Wind Direction,Wind SpeedMPH,Gust SpeedMPH,PrecipitationIn,Events,Conditions,WindDirDegrees,DateUTC
12:58 AM,68.0,62.4,82,29.89,10.0,WSW,3.5,-,N/A,,Clear,240,2013-06-18 04:58:00
1:58 AM,66.0,61.5,85,29.89,10.0,Calm,Calm,-,N/A,,Clear,0,2013-06-18 05:58:00
2:58 AM,63.7,61.9,94,29.88,10.0,Calm,Calm,-,N/A,,Clear,0,2013-06-18 06:58:00
3:58 AM,63.9,62.2,94,29.87,10.0,South,3.5,-,N/A,,Clear,170,2013-06-18 07:58:00
4:58 AM,63.5,61.9,94,29.88,10.0,Calm,Calm,-,N/A,,Clear,0,2013-06-18 08:58:00
5:58 AM,63.7,61.3,92,29.88,10.0,NNE,1.2,-,N/A,,Partly Cloudy,20,2013-06-18 09:58:00
6:49 AM,66.2,64.4,94,29.87,10.0,ENE,2.3,-,N/A,Rain,Light Rain,60,2013-06-18 10:49:00
6:58 AM,66.4,64.0,92,29.88,10.0,ENE,2.3,-,0.00,Rain,Light Rain,60,2013-06-18 10:58:00
6:59 AM,66.2,64.4,94,29.87,10.0,ENE,2.3,-,N/A,,Clear,70,2013-06-18 10:59:00
7:53 AM,68.0,64.4,88,29.88,10.0,ESE,1.2,-,N/A,Rain,Light Rain,110,2013-06-18 11:53:00
7:58 AM,68.5,64.2,86,29.89,10.0,SE,2.3,-,0.00,Rain,Light Rain,130,2013-06-18 11:58:00
8:02 AM,69.8,64.4,83,29.88,10.0,ESE,2.3,-,N/A,,Clear,120,2013-06-18 12:02:00
8:24 AM,71.6,64.4,78,29.88,10.0,ESE,1.2,-,N/A,Rain,Light Rain,110,2013-06-18 12:24:00
8:33 AM,71.6,66.2,83,29.88,10.0,East,2.3,-,N/A,,Scattered Clouds,90,2013-06-18 12:33:00
8:58 AM,72.0,65.8,81,29.89,10.0,East,2.3,-,0.00,,Scattered Clouds,90,2013-06-18 12:58:00
9:58 AM,73.9,66.7,78,29.89,10.0,ESE,3.5,-,N/A,,Overcast,120,2013-06-18 13:58:00
10:58 AM,76.6,66.4,70,29.87,10.0,Variable,4.6,-,N/A,,Overcast,0,2013-06-18 14:58:00
11:10 AM,77.0,68.0,74,29.86,10.0,East,2.3,-,N/A,,Overcast,100,2013-06-18 15:10:00
11:43 AM,77.0,66.2,69,29.86,10.0,Variable,2.3,-,N/A,,Overcast,0,2013-06-18 15:43:00
11:58 AM,78.3,67.3,69,29.86,10.0,Variable,1.2,-,N/A,,Mostly Cloudy,0,2013-06-18 15:58:00
12:58 PM,75.7,64.4,68,29.84,10.0,North,9.2,23.0,N/A,,Overcast,360,2013-06-18 16:58:00
1:06 PM,73.4,62.6,69,29.82,10.0,North,10.4,-,N/A,,Overcast,10,2013-06-18 17:06:00
1:29 PM,71.6,60.8,69,29.81,10.0,NNE,12.7,-,N/A,,Mostly Cloudy,30,2013-06-18 17:29:00
1:42 PM,69.8,60.8,73,29.82,10.0,ENE,5.8,-,N/A,Rain-Thunderstorm,Light Rain,60,2013-06-18 17:42:00
1:55 PM,69.8,62.6,78,29.82,10.0,NNW,10.4,-,N/A,Rain-Thunderstorm,Light Thunderstorms and Rain,330,2013-06-18 17:55:00
1:58 PM,69.1,62.4,79,29.83,10.0,North,10.4,-,0.00,Rain-Thunderstorm,Light Thunderstorms and Rain,350,2013-06-18 17:58:00
2:10 PM,68.0,62.6,83,29.80,9.0,NE,12.7,-,N/A,Rain,Light Rain,40,2013-06-18 18:10:00
2:30 PM,66.2,62.6,88,29.87,6.0,South,20.7,25.3,N/A,Rain,Light Rain,180,2013-06-18 18:30:00
2:33 PM,66.2,64.4,94,29.87,3.0,South,18.4,28.8,N/A,Rain-Thunderstorm,Heavy Thunderstorms and Rain,180,2013-06-18 18:33:00
2:34 PM,66.2,64.4,94,29.87,2.5,South,16.1,28.8,N/A,Rain-Thunderstorm,Heavy Thunderstorms and Rain,180,2013-06-18 18:34:00
2:36 PM,66.2,64.4,94,29.87,1.8,South,13.8,28.8,N/A,Rain-Thunderstorm,Heavy Thunderstorms and Rain,180,2013-06-18 18:36:00
2:37 PM,66.2,64.4,94,29.86,1.5,South,11.5,28.8,N/A,Rain-Thunderstorm,Heavy Thunderstorms and Rain,180,2013-06-18 18:37:00
2:38 PM,66.2,64.4,94,29.86,1.2,South,11.5,28.8,N/A,Rain-Thunderstorm,Heavy Thunderstorms and Rain,180,2013-06-18 18:38:00
2:40 PM,66.2,64.4,94,29.86,1.0,South,10.4,28.8,N/A,Rain-Thunderstorm,Heavy Thunderstorms and Rain,180,2013-06-18 18:40:00
2:41 PM,66.2,64.4,94,29.86,1.0,South,9.2,28.8,N/A,Rain-Thunderstorm,Heavy Thunderstorms and Rain,170,2013-06-18 18:41:00
2:42 PM,66.2,64.4,94,29.86,1.0,South,9.2,28.8,N/A,Rain-Thunderstorm,Heavy Thunderstorms and Rain,170,2013-06-18 18:42:00
2:46 PM,66.2,64.4,94,29.85,1.0,SE,6.9,-,N/A,Rain-Thunderstorm,Heavy Thunderstorms and Rain,130,2013-06-18 18:46:00
2:49 PM,66.2,64.4,94,29.85,1.0,East,2.3,-,N/A,Rain-Thunderstorm,Heavy Thunderstorms and Rain,100,2013-06-18 18:49:00
2:50 PM,66.2,64.4,94,29.85,1.2,Variable,1.2,-,N/A,Rain-Thunderstorm,Heavy Thunderstorms and Rain,0,2013-06-18 18:50:00
2:52 PM,66.2,64.4,94,29.85,1.5,SSW,2.3,-,N/A,Rain-Thunderstorm,Heavy Thunderstorms and Rain,210,2013-06-18 18:52:00
2:53 PM,66.2,64.4,94,29.85,1.5,SW,4.6,-,N/A,Rain-Thunderstorm,Heavy Rain,230,2013-06-18 18:53:00
2:55 PM,66.2,64.4,94,29.85,1.8,WSW,4.6,-,N/A,Rain-Thunderstorm,Rain,250,2013-06-18 18:55:00
2:56 PM,66.2,64.4,94,29.85,2.0,WSW,4.6,-,N/A,Rain-Thunderstorm,Rain,250,2013-06-18 18:56:00
2:58 PM,66.2,64.4,94,29.87,2.0,SW,2.3,-,0.39,Rain-Thunderstorm,Rain,230,2013-06-18 18:58:00
3:00 PM,66.2,64.4,94,29.85,3.0,Variable,2.3,-,N/A,Rain-Thunderstorm,Rain,0,2013-06-18 19:00:00
3:01 PM,66.2,64.4,94,29.85,3.0,SE,2.3,-,N/A,Rain-Thunderstorm,Rain,130,2013-06-18 19:01:00
3:05 PM,66.2,64.4,94,29.84,4.0,South,5.8,-,N/A,Rain-Thunderstorm,Light Thunderstorms and Rain,170,2013-06-18 19:05:00
3:20 PM,66.2,66.2,100,29.84,7.0,Variable,5.8,-,N/A,Rain,Light Rain,0,2013-06-18 19:20:00
3:23 PM,66.2,66.2,100,29.84,7.0,ENE,10.4,-,N/A,Rain,Light Rain,60,2013-06-18 19:23:00
3:34 PM,66.2,66.2,100,29.85,8.0,ESE,5.8,-,N/A,Rain,Light Rain,110,2013-06-18 19:34:00
3:41 PM,66.2,64.4,94,29.84,5.0,East,1.2,-,N/A,Rain,Light Rain,80,2013-06-18 19:41:00
3:58 PM,65.8,65.5,99,29.84,5.0,Variable,1.2,-,0.10,Rain,Light Rain,0,2013-06-18 19:58:00
4:58 PM,65.7,65.5,99,29.85,9.0,ESE,4.6,-,0.09,Rain,Light Rain,120,2013-06-18 20:58:00
5:58 PM,64.9,64.8,99,29.81,10.0,ESE,5.8,-,0.05,Rain,Light Rain,110,2013-06-18 21:58:00
6:07 PM,64.4,64.4,100,29.80,10.0,Variable,2.3,-,N/A,,Light Drizzle,0,2013-06-18 22:07:00
6:09 PM,64.4,64.4,100,29.80,10.0,Calm,Calm,-,N/A,,Clear,0,2013-06-18 22:09:00
6:21 PM,64.4,64.4,100,29.81,10.0,South,2.3,-,N/A,Rain,Light Rain,170,2013-06-18 22:21:00
6:58 PM,65.3,64.8,98,29.83,10.0,NE,3.5,-,0.01,Rain,Light Rain,50,2013-06-18 22:58:00
7:28 PM,66.2,66.2,100,29.84,10.0,NNE,8.1,-,N/A,Rain,Light Rain,30,2013-06-18 23:28:00
7:58 PM,65.7,65.3,99,29.84,10.0,NE,10.4,-,0.03,Rain,Light Rain,50,2013-06-18 23:58:00
8:09 PM,66.2,64.4,94,29.82,10.0,NE,9.2,-,N/A,,Mostly Cloudy,50,2013-06-19 00:09:00
8:16 PM,66.2,64.4,94,29.81,10.0,ENE,9.2,-,N/A,Rain,Light Rain,60,2013-06-19 00:16:00
8:21 PM,66.2,64.4,94,29.81,10.0,ENE,12.7,-,N/A,,Scattered Clouds,60,2013-06-19 00:21:00
8:58 PM,65.1,62.1,90,29.79,10.0,East,10.4,-,0.00,,Clear,80,2013-06-19 00:58:00
9:06 PM,64.4,62.6,94,29.78,10.0,East,8.1,-,N/A,Rain,Light Rain,90,2013-06-19 01:06:00
9:14 PM,64.4,60.8,88,29.79,10.0,ENE,4.6,-,N/A,,Partly Cloudy,70,2013-06-19 01:14:00
9:58 PM,63.9,61.7,93,29.85,10.0,North,9.2,-,0.00,,Scattered Clouds,350,2013-06-19 01:58:00
10:58 PM,62.6,61.3,96,29.86,10.0,NW,6.9,-,N/A,,Scattered Clouds,320,2013-06-19 02:58:00
11:58 PM,61.3,60.4,97,29.86,10.0,NNW,5.8,-,N/A,,Clear,340,2013-06-19 03:58:00